TimeCDT,TemperatureF,Dew PointF,Humidity,Sea Level PressureIn,VisibilityMPH,Wind Direction,Wind SpeedMPH,Gust SpeedMPH,PrecipitationIn,Events,Conditions,WindDirDegrees,DateUTC
12:58 AM,46.8,41.2,81,30.33,10.0,Calm,Calm,-,N/A,,Clear,0,2013-03-28 05:58:00
1:58 AM,45.9,43.7,92,30.33,10.0,Calm,Calm,-,N/A,,Clear,0,2013-03-28 06:58:00
2:58 AM,45.0,42.8,92,30.32,10.0,Calm,Calm,-,N/A,,Clear,0,2013-03-28 07:58:00
3:58 AM,44.8,42.3,91,30.32,10.0,NW,1.2,-,N/A,,Clear,320,2013-03-28 08:58:00
4:58 AM,44.2,41.9,91,30.32,10.0,Calm,Calm,-,N/A,,Clear,0,2013-03-28 09:58:00
5:58 AM,42.6,40.5,92,30.33,10.0,North,2.3,-,N/A,,Clear,10,2013-03-28 10:58:00
6:58 AM,39.0,37.2,93,30.34,10.0,NE,5.8,-,N/A,,Clear,50,2013-03-28 11:58:00
7:58 AM,43.9,42.1,93,30.36,10.0,NE,5.8,-,N/A,,Clear,50,2013-03-28 12:58:00
8:58 AM,49.1,42.1,77,30.38,10.0,NE,5.8,-,N/A,,Clear,40,2013-03-28 13:58:00
9:58 AM,56.5,41.0,56,30.38,10.0,NNE,5.8,-,N/A,,Clear,30,2013-03-28 14:58:00
10:58 AM,61.3,36.3,39,30.38,10.0,Variable,2.3,-,N/A,,Clear,0,2013-03-28 15:58:00
11:58 AM,63.7,35.6,35,30.37,6.0,South,8.1,-,N/A,,Haze,190,2013-03-28 16:58:00
12:58 PM,63.7,36.1,36,30.36,10.0,South,11.5,-,N/A,,Clear,180,2013-03-28 17:58:00
1:58 PM,63.1,38.7,40,30.34,10.0,South,13.8,-,N/A,,Clear,180,2013-03-28 18:58:00
2:58 PM,64.0,41.0,43,30.31,10.0,South,12.7,-,N/A,,Clear,190,2013-03-28 19:58:00
3:58 PM,62.8,41.5,46,30.29,10.0,SSW,11.5,-,N/A,,Clear,200,2013-03-28 20:58:00
4:58 PM,62.2,41.0,46,30.28,10.0,South,11.5,-,N/A,,Clear,190,2013-03-28 21:58:00
5:58 PM,61.0,42.1,50,30.28,10.0,SSW,9.2,-,N/A,,Clear,200,2013-03-28 22:58:00
6:58 PM,58.6,41.9,54,30.29,10.0,SSW,8.1,-,N/A,,Clear,210,2013-03-28 23:58:00
7:58 PM,55.2,42.8,63,30.29,10.0,SSW,6.9,-,N/A,,Clear,210,2013-03-29 00:58:00
8:58 PM,53.4,44.1,71,30.31,10.0,SW,5.8,-,N/A,,Clear,220,2013-03-29 01:58:00
9:58 PM,54.5,46.0,73,30.32,10.0,West,2.3,-,N/A,,Clear,270,2013-03-29 02:58:00
10:58 PM,54.5,48.0,79,30.33,10.0,WSW,2.3,-,N/A,,Clear,250,2013-03-29 03:58:00
11:58 PM,51.6,49.1,91,30.32,10.0,Calm,Calm,-,N/A,,Clear,0,2013-03-29 04:58:00